CDT,Max TemperatureF,Mean TemperatureF,Min TemperatureF,Max Dew PointF,MeanDew PointF,Min DewpointF,Max Humidity, Mean Humidity, Min Humidity, Max Sea Level PressureIn, Mean Sea Level PressureIn, Min Sea Level PressureIn, Max VisibilityMiles, Mean VisibilityMiles, Min VisibilityMiles, Max Wind SpeedMPH, Mean Wind SpeedMPH, Max Gust SpeedMPH,PrecipitationIn, CloudCover, Events, WindDirDegrees
2012-10-1,79,69,58,60,56,49,97,68,38,29.79,29.74,29.70,10,8,2,14,3,21,0.01,3,Rain,343
2012-10-2,78,66,54,60,55,48,100,70,40,29.92,29.85,29.79,10,5,0,8,1,10,0.00,0,Fog,230
2012-10-3,82,70,57,60,57,52,100,68,36,30.07,29.99,29.92,10,6,0,12,1,15,0.00,1,Fog,152
2012-10-4,87,70,52,62,55,49,100,65,29,30.19,30.12,30.06,10,5,0,12,4,17,0.00,1,Fog,118
2012-10-5,81,70,58,73,64,52,93,83,73,30.10,30.03,29.95,10,8,2,15,6,20,0.01,7,Rain,325
2012-10-6,58,52,46,52,41,36,83,69,54,30.26,30.17,30.10,10,10,9,14,8,20,T,8,Rain,54
2012-10-7,60,51,42,47,42,37,89,68,47,30.29,30.23,30.18,10,10,6,12,3,15,0.01,6,Rain,41
2012-10-8,66,51,36,48,40,36,100,69,37,30.26,30.20,30.09,10,5,0,9,2,12,0.00,1,Fog,172
2012-10-9,68,52,36,59,43,35,100,79,58,30.12,30.06,29.90,10,4,0,13,3,18,T,4,Fog,86
2012-10-10,74,64,54,58,54,47,100,75,49,30.19,30.11,30.02,10,7,2,14,6,18,0.00,6,,87
2012-10-11,85,73,60,66,53,43,93,71,48,30.19,30.14,30.07,10,10,4,14,4,18,0.00,6,,99
2012-10-12,84,73,61,67,63,60,100,78,55,30.20,30.14,30.11,10,4,0,13,5,15,0.00,4,Fog,107
2012-10-13,84,75,65,67,65,63,100,78,55,30.12,30.04,29.82,10,5,2,20,7,29,0.07,6,,139
2012-10-14,81,66,51,64,59,50,100,68,36,30.05,29.94,29.85,10,8,1,15,4,19,0.06,4,Rain,261
2012-10-15,83,64,44,54,48,43,100,62,24,30.08,30.03,29.93,10,4,0,10,2,13,0.00,0,Fog,214
2012-10-16,74,61,48,57,51,47,100,75,49,29.99,29.89,29.73,10,5,0,13,3,19,0.00,0,Fog,113
2012-10-17,81,66,51,66,60,49,97,77,56,29.72,29.62,29.51,10,8,5,15,6,20,0.00,5,,175
2012-10-18,74,57,39,50,39,24,100,58,16,29.94,29.87,29.77,10,6,0,22,6,32,0.00,0,Fog,278
2012-10-19,75,57,39,39,35,28,89,54,19,29.91,29.87,29.83,10,10,10,22,7,29,0.00,1,,274
2012-10-20,85,61,36,52,44,36,92,60,28,29.93,29.85,29.78,10,10,9,13,4,17,0.00,1,,172
2012-10-21,84,76,67,68,63,50,79,63,47,29.96,29.90,29.83,10,10,8,14,6,20,0.00,7,,154
2012-10-22,80,74,67,67,66,64,93,78,62,30.03,29.97,29.93,10,9,7,14,5,19,0.00,6,,163
2012-10-23,85,73,61,66,63,60,100,74,47,30.02,29.96,29.90,10,8,0,15,4,20,0.00,4,Fog,169
2012-10-24,81,71,60,67,64,60,93,76,58,30.02,29.94,29.88,10,9,6,15,5,22,0.00,4,,179
2012-10-25,81,66,50,71,63,48,93,78,62,30.03,29.91,29.84,10,7,1,14,5,22,0.09,7,Rain,201
2012-10-26,57,48,38,48,43,35,89,72,54,30.28,30.14,30.02,10,10,3,14,5,20,0.00,7,Rain,19
2012-10-27,61,47,32,34,32,27,100,64,27,30.31,30.23,30.13,10,10,10,13,3,18,0.00,0,,25
2012-10-28,63,46,29,37,29,21,96,58,20,30.27,30.22,30.17,10,10,7,9,2,14,0.00,0,,35
2012-10-29,65,47,29,39,32,28,100,63,26,30.33,30.23,30.14,10,9,2,8,1,12,0.00,0,,194
2012-10-30,73,52,31,44,35,30,100,65,29,30.13,30.06,29.93,10,5,0,12,2,16,0.00,0,Fog,246
2012-10-31,81,59,37,49,42,37,100,63,26,29.99,29.95,29.92,10,5,0,12,2,16,0.00,0,Fog,68